This is the latest recevied weather packets stored in our database for station/object K4IR. If no packets are shown the sender has not sent any weather packets the latest 10 day(s).
| Time | Temp. | Humidity | Pressure | Rain* | Wind** | Luminosity | Snow |
|---|---|---|---|---|---|---|---|
| 1778118950 | 21.67° C | 88% | 1014 hPa | 0 mm | - | 0 W/m² | - |
| 1778118349 | 21.67° C | 88% | 1013.9 hPa | 0 mm | - | 0 W/m² | - |
| 1778117748 | 21.67° C | 87% | 1013.7 hPa | 0 mm | - | 0 W/m² | - |
| 1778117142 | 21.67° C | 86% | 1014 hPa | 0 mm | - | 0 W/m² | - |
| 1778116542 | 21.67° C | 86% | 1014 hPa | 0 mm | - | 0 W/m² | - |
| 1778115938 | 21.67° C | 84% | 1013.9 hPa | 0 mm | - | 0 W/m² | - |
| 1778115332 | 21.67° C | 83% | 1013.9 hPa | 0 mm | - | 0 W/m² | - |
| 1778114732 | 21.67° C | 83% | 1013.9 hPa | 0 mm | - | 0 W/m² | - |
| 1778114130 | 21.67° C | 83% | 1013.9 hPa | 0 mm | - | 0 W/m² | - |
| 1778113528 | 21.67° C | 82% | 1014 hPa | 0 mm | - | 0 W/m² | - |
| 1778112927 | 21.67° C | 81% | 1013.9 hPa | 0 mm | - | 0 W/m² | - |
| 1778112326 | 21.67° C | 80% | 1013.8 hPa | 0 mm | - | 1 W/m² | - |
| 1778111726 | 22.22° C | 78% | 1014.1 hPa | 0 mm | - | 4 W/m² | - |
| 1778111125 | 22.22° C | 76% | 1013.9 hPa | 0 mm | - | 10 W/m² | - |
| 1778110524 | 22.78° C | 75% | 1013.8 hPa | 0 mm | - | 21 W/m² | - |
| 1778109923 | 22.78° C | 75% | 1013.9 hPa | 0 mm | - | 27 W/m² | - |
| 1778109322 | 22.78° C | 74% | 1014 hPa | 0 mm | - | 30 W/m² | - |
| 1778108722 | 22.78° C | 73% | 1013.9 hPa | 0 mm | - | 29 W/m² | - |
| 1778108116 | 23.33° C | 71% | 1013.8 hPa | 0 mm | - | 38 W/m² | - |
| 1778107515 | 23.89° C | 70% | 1013.9 hPa | 0 mm | - | 47 W/m² | - |
| 1778106913 | 23.89° C | 68% | 1013.9 hPa | 0 mm | - | 105 W/m² | - |
| 1778106311 | 23.89° C | 68% | 1014.1 hPa | 0 mm | - | 55 W/m² | - |
| 1778105711 | 25° C | 67% | 1014.2 hPa | 0 mm | - | 154 W/m² | - |
| 1778105109 | 25° C | 67% | 1013.9 hPa | 0 mm | - | 206 W/m² | - |
| 1778104508 | 25° C | 68% | 1013.8 hPa | 0 mm | - | 297 W/m² | - |
* Rain latest hour (hover to see other rain measurements)
** Current wind speed in m/s (hover to see current wind gust speed)